Showing default

COSMOS 1566, 15005

Orbit data source: Space-Track

COSMOS 1566, 15005 is a payload satellite owned by GUKOS (CIS) in LEO that was launched on Mon, 28 May 1984 UTC via a KOSMOS 11K65M launch vehicle from the Plesetsk Missile And Space Complex (PKMTR). Payload-class satellites include a variety of spacecraft equipped with specific instruments for various scientific and technological missions. These include communications satellites like Starlink; space stations such as the ISS; scientific satellites like the Hubble; Earth observation satellites from companies like Planet Labs, Umbra, and HawkEye 360; GPS; miniature CubeSats for education and research; and military/defense satellites.

Loading next visibility...
Identifier
15005, 1984-052H
Orbit
LEO
Last TLE update
11 hours ago
Origin
Manufacturer
NPO PM
Mission
Defense Communications
Bus & Motor
STRELA-1 11F625, Unknown motor
Mass
60 kg wet, 60 kg dry
Launch date (UTC)
1984-05-28 (41 years ago)
Launch vehicle
KOSMOS 11K65M
Launch site
Plesetsk Missile And Space Complex (PKMTR)
Object type
Payload
Rocket body
Debris
Shape & HBR
Sphere, 0.8 m
Radar Cross Section
0.588 m², Medium (>0.1 m² and < 1m²)

Expand to show TLE details & history

TLE from 11 hours ago
0 COSMOS 1566
1 15005U 84052H   25183.65415948  .00000006  00000-0  13128-3 0  9995
2 15005  74.0112 143.1522 0051983 301.6666 231.9414 12.57376870886170
Epoch: 2025-07-02T15:41Z
TLE epoch observation values (Epoch: 2025-07-02T15:41:59.379Z)
Latitude
6.52816°
Longitude
164.85284°
Altitude
1,460.739 km
Speed
7.121 km/s
True Right ascension
21h 25m 07s
True Declination
6° 29' 34"
Sunlit
Object was in full shadow at epoch
Visualization orbit readout
Latitude
44.64519°
Longitude
149.73404°
Altitude
1,479.768 km
Speed
7.11 km/s
Apparent Right ascension
23h 16m 43s
Apparent Declination
11° 16' 51"
Sunlit
Object is in daylight
Visualization observer readout
Local Sidereal Time
14:41:37
Azimuth
54.562° ENE
Elevation
-20.213°
Doppler factor
1
Orbital elements
Apogee altitude
1,472.216 km
Perigee altitude
1,391.021 km
Semi-major axis
7,809.755 km
Eccentricity
0.0052
Inclination
74.0112°
RAAN
143.1522°
Arg. of periapsis
301.6666°
True anomaly
Unknown
Mean anomaly
231.9414°
Eccentric anomaly
Unknown
Mean motion
3.14476 °/min
Orbital period
114.48 mins
BSTAR
0.00013128
Loading maneuver chart data...
Loading SW <> Apogee altitude chart data...
Loading historical data...
Loading historical data...
Loading historical data...
Loading historical data...
Loading historical data...
Loading historical data...
Loading historical data...

COSMOS 1566 Visibility forecast

Observer location: undefined°, undefined°

Span
Click to sort rows by Start time (UTC) header in descending order
Start Az.
Max El. time (UTC)
Max El. Az.
Max El.
End time (UTC)
End Az.
11 mins2025-07-03 06:37:31.462Z5.425° NNE2025-07-03 06:43:31.462Z49.944° ENE18.933°2025-07-03 06:48:31.462Z88.291° E
15 mins2025-07-03 08:34:31.462Z342.606° N2025-07-03 08:41:31.462Z41.88° NE44.832°2025-07-03 08:49:31.462Z160.199° S
9 mins2025-07-03 10:33:31.462Z300.576° NW2025-07-03 10:37:31.462Z269.149° W18.156°2025-07-03 10:42:31.462Z231.994° WSW
14 mins2025-07-03 21:25:31.462Z159.299° S2025-07-03 21:32:31.462Z90.621° ESE32.714°2025-07-03 21:39:31.462Z33.835° NE
14 mins2025-07-03 23:22:31.462Z232.462° WSW2025-07-03 23:28:31.462Z292.777° NW35.278°2025-07-03 23:36:31.462Z7.56° NNE
|